This is the latest recevied weather packets stored in our database for station/object S51UL-6. If no packets are shown the sender has not sent any weather packets the latest 10 day(s).
| Time | Temp. | Humidity | Pressure | Rain* | Wind** | Luminosity | Snow |
|---|---|---|---|---|---|---|---|
| 1777819441 | 24.44° C | 37% | 1016.8 hPa | 0 mm | - | - | - |
| 1777817641 | 25.56° C | 37% | 1017 hPa | 0 mm | - | - | - |
| 1777817042 | 25.56° C | 36% | 1017.1 hPa | 0 mm | - | - | - |
| 1777816142 | 26.11° C | 36% | 1017.3 hPa | 0 mm | - | - | - |
| 1777815246 | 26.67° C | 35% | 1017.4 hPa | 0 mm | - | - | - |
| 1777814942 | 26.11° C | 37% | 1017.4 hPa | 0 mm | - | - | - |
| 1777814642 | 26.11° C | 37% | 1017.5 hPa | 0 mm | - | - | - |
| 1777813442 | 26.11° C | 37% | 1017.8 hPa | 0 mm | - | - | - |
| 1777812543 | 25.56° C | 37% | 1017.8 hPa | 0 mm | - | - | - |
| 1777812243 | 25.56° C | 36% | 1018.2 hPa | 0 mm | - | - | - |
| 1777811943 | 25.56° C | 36% | 1018.3 hPa | 0 mm | - | - | - |
| 1777811643 | 25.56° C | 36% | 1018.2 hPa | 0 mm | - | - | - |
| 1777811344 | 26.11° C | 36% | 1018.2 hPa | 0 mm | - | - | - |
| 1777810743 | 26.67° C | 35% | 1018.4 hPa | 0 mm | - | - | - |
| 1777810143 | 26.11° C | 37% | 1018.4 hPa | 0 mm | - | - | - |
| 1777809843 | 25.56° C | 36% | 1018.4 hPa | 0 mm | - | - | - |
| 1777809543 | 25.56° C | 35% | 1018.5 hPa | 0 mm | - | - | - |
| 1777808644 | 26.67° C | 36% | 1018.5 hPa | 0 mm | - | - | - |
| 1777808344 | 26.67° C | 35% | 1018.8 hPa | 0 mm | - | - | - |
| 1777807444 | 26.67° C | 35% | 1018.8 hPa | 0 mm | - | - | - |
| 1777807143 | 26.11° C | 37% | 1018.9 hPa | 0 mm | - | - | - |
| 1777806843 | 25.56° C | 37% | 1018.9 hPa | 0 mm | - | - | - |
| 1777806244 | 25.56° C | 37% | 1018.9 hPa | 0 mm | - | - | - |
| 1777805945 | 26.11° C | 38% | 1019 hPa | 0 mm | - | - | - |
| 1777804146 | 24.44° C | 42% | 1019.5 hPa | 0 mm | - | - | - |
* Rain latest hour (hover to see other rain measurements)
** Current wind speed in m/s (hover to see current wind gust speed)